Lacon, IL

3:36 AM CST on February 23, 2017 (GMT -0600)
Lacon

Weather History for KC75 - March, 2013

Change the Weather History Date:

Tuesday, March 5, 2013

  Actual Average (KPIA) Record (KPIA)
Temperature  
Mean Temperature 30 °F -  
Max Temperature 32 °F 41 °F 70 °F (1946)
Min Temperature 27 °F 25 °F -8 °F (1960)
Degree Days  
Heating Degree Days 36    
Moisture  
Dew Point 29 °F    
Average Humidity 94    
Maximum Humidity 99    
Minimum Humidity 88    
Precipitation  
Precipitation 0.12 in - - ()
Sea Level Pressure  
Sea Level Pressure 29.89 in    
Wind  
Wind Speed 8 mph (NNW)    
Max Wind Speed 17 mph    
Max Gust Speed 23 mph    
Visibility 3 miles    
Events Rain , Snow    
Averages and records for this station are not official NWS values.
T = Trace of Precipitation, MM = Missing Value Source: NWS Daily Summary

Daily Weather History Graph

Daily Weather History Graph

Search for Another Location

Airport or City:

Trip Planner

Search our weather history database for the weather conditions in past years. The results will help you decide how hot, cold, wet, or windy it might be!

Date:

Astronomy

Mar. 05, 2013 Rise Set
Actual Time 6:24 AM CST 5:53 PM CST
Civil Twilight 5:57 AM CST 6:20 PM CST
Nautical Twilight 5:25 AM CST 6:52 PM CST
Astronomical Twilight 4:53 AM CST 7:24 PM CST
Moon 1:39 AM CST (3/5) 11:30 AM CST (3/5)
Length of Visible Light 12h 23m
Length of Day
11h 28m
Last Quarter, 40% of the Moon is Illuminated
Mar 5
Last Quarter
Mar 11
New
Mar 19
First Quarter
Mar 27
Full
Apr 2
Last Quarter

Hourly Weather History & Observations

Time (CST) Temp. Windchill Dew Point Humidity Pressure Visibility Wind Dir Wind Speed Gust Speed Precip Events Conditions
12:15 AM 32.0 °F 24.8 °F 28.9 °F 88% 29.92 in 10.0 mi East 8.1 mph - N/A Rain Light Rain
12:35 AM 32.0 °F 24.8 °F 28.9 °F 88% 29.91 in 7.0 mi ENE 8.1 mph - N/A Rain Light Rain
12:55 AM 32.0 °F 25.6 °F 29.1 °F 89% 29.91 in 5.0 mi ENE 6.9 mph - N/A Rain Light Rain
1:15 AM 32.0 °F 25.6 °F 29.3 °F 90% 29.91 in 7.0 mi ENE 6.9 mph - N/A Rain Light Rain
1:35 AM 32.0 °F 26.4 °F 29.3 °F 90% 29.90 in 10.0 mi ENE 5.8 mph - N/A   Unknown
1:55 AM 32.0 °F 26.4 °F 29.3 °F 90% 29.89 in 10.0 mi ENE 5.8 mph - N/A   Unknown
2:15 AM 32.0 °F 25.6 °F 29.3 °F 90% 29.88 in 10.0 mi ENE 6.9 mph - N/A   Unknown
2:35 AM 32.2 °F 25.8 °F 29.5 °F 90% 29.88 in 7.0 mi ENE 6.9 mph - N/A Rain Light Rain
2:55 AM 32.2 °F 27.7 °F 29.5 °F 90% 29.88 in 7.0 mi ENE 4.6 mph - N/A   Unknown
3:15 AM 32.0 °F 24.8 °F 29.7 °F 91% 29.87 in 7.0 mi ENE 8.1 mph - N/A Rain Light Rain
3:35 AM 32.0 °F 25.6 °F 29.8 °F 92% 29.87 in 4.0 mi ENE 6.9 mph - N/A Rain Light Rain
3:55 AM 32.0 °F 25.6 °F 30.2 °F 93% 29.87 in 2.0 mi ENE 6.9 mph - N/A Snow Light Snow
4:15 AM 32.0 °F 27.5 °F 30.4 °F 94% 29.88 in 2.0 mi ENE 4.6 mph - N/A Snow Light Snow
4:35 AM 31.6 °F 26.0 °F 30.9 °F 97% 29.87 in 1.0 mi ENE 5.8 mph - N/A Snow Light Snow
4:55 AM 31.6 °F 25.1 °F 30.9 °F 97% 29.86 in 1.8 mi ENE 6.9 mph - N/A Snow Light Snow
5:15 AM 31.6 °F 25.1 °F 30.9 °F 97% 29.86 in 1.8 mi ENE 6.9 mph - 0.01 in Snow Light Snow
5:35 AM 31.6 °F 25.1 °F 30.7 °F 96% 29.86 in 1.5 mi ENE 6.9 mph - 0.01 in Snow Light Snow
5:55 AM 32.0 °F 28.7 °F 30.2 °F 93% 29.86 in 1.2 mi NE 3.5 mph - N/A Snow Light Snow
6:15 AM 31.5 °F - 30.9 °F 98% 29.86 in 1.8 mi Calm Calm - 0.01 in Snow Light Snow
6:35 AM 31.5 °F 28.1 °F 30.9 °F 98% 29.86 in 2.5 mi NE 3.5 mph - 0.01 in Rain Light Freezing Rain
6:55 AM 32.0 °F - 30.2 °F 93% 29.87 in 2.5 mi Calm Calm - N/A Rain Rain
7:15 AM 31.5 °F - 31.1 °F 99% 29.87 in 1.0 mi Calm Calm - 0.01 in Snow Light Snow
7:35 AM 31.3 °F - 31.1 °F 99% 29.86 in 0.8 mi Calm Calm - 0.02 in Snow Light Snow
7:55 AM 31.5 °F - 31.1 °F 99% 29.86 in 0.5 mi Calm Calm - 0.03 in Snow Light Snow
8:15 AM 31.5 °F 28.1 °F 31.1 °F 99% 29.86 in 0.5 mi NNW 3.5 mph - 0.01 in Snow Light Snow
8:35 AM 31.5 °F - 31.1 °F 99% 29.86 in 0.5 mi Calm Calm - 0.02 in Snow Light Snow
8:55 AM 31.5 °F 28.1 °F 31.1 °F 99% 29.86 in 0.5 mi NNW 3.5 mph - 0.02 in Snow Light Snow
9:15 AM 31.6 °F 28.3 °F 31.1 °F 98% 29.84 in 0.5 mi North 3.5 mph - 0.01 in Snow Snow
9:35 AM 31.6 °F 27.0 °F 31.1 °F 98% 29.84 in 0.5 mi NNW 4.6 mph - 0.01 in Snow Light Snow
9:55 AM 31.8 °F 28.5 °F 31.5 °F 99% 29.84 in 0.5 mi NNW 3.5 mph - 0.01 in Snow Light Snow
10:15 AM 32.0 °F 27.5 °F 31.5 °F 98% 29.83 in 0.5 mi NNW 4.6 mph - 0.01 in Snow Light Snow
10:35 AM 32.0 °F 28.7 °F 31.5 °F 98% 29.83 in 0.5 mi NNW 3.5 mph - 0.01 in Snow Light Snow
10:55 AM 32.0 °F 28.7 °F 31.6 °F 99% 29.83 in 0.5 mi NW 3.5 mph - 0.02 in Snow Snow
11:15 AM 32.0 °F 27.5 °F 31.6 °F 99% 29.83 in 0.5 mi WNW 4.6 mph - 0.01 in Snow Light Snow
11:35 AM 32.0 °F 26.4 °F 31.6 °F 99% 29.83 in 0.8 mi WNW 5.8 mph - 0.01 in Snow Light Snow
11:55 AM 32.0 °F 24.2 °F 31.1 °F 96% 29.83 in 0.5 mi WNW 9.2 mph - 0.01 in Snow Light Snow
12:15 PM 31.6 °F 23.1 °F 30.9 °F 97% 29.83 in 0.5 mi WNW 10.4 mph - 0.01 in Snow Light Snow
12:35 PM 31.5 °F 22.3 °F 30.7 °F 97% 29.83 in 0.5 mi WNW 11.5 mph - 0.01 in Snow Light Snow
12:55 PM 31.1 °F 21.4 °F 30.0 °F 96% 29.82 in 0.5 mi WNW 12.7 mph 17.3 mph 0.01 in Snow Light Snow
1:15 PM 31.1 °F 23.1 °F 30.2 °F 96% 29.83 in 0.5 mi WNW 9.2 mph - N/A Snow Snow
1:35 PM 30.9 °F 24.3 °F 29.8 °F 96% 29.83 in 0.8 mi WNW 6.9 mph 17.3 mph N/A Snow Light Snow
1:55 PM 30.2 °F 20.2 °F 28.8 °F 94% 29.83 in 1.0 mi WNW 12.7 mph 20.7 mph N/A Snow Light Snow
2:15 PM 30.0 °F 21.7 °F 28.4 °F 94% 29.83 in 1.0 mi WNW 9.2 mph 17.3 mph N/A Snow Light Snow
2:35 PM 30.0 °F 20.5 °F 28.2 °F 93% 29.84 in 1.2 mi WNW 11.5 mph 17.3 mph N/A Snow Light Snow
2:55 PM 29.8 °F 20.9 °F 28.2 °F 94% 29.85 in 1.0 mi WNW 10.4 mph - N/A Snow Light Snow
3:15 PM 29.8 °F 20.3 °F 28.0 °F 93% 29.85 in 0.8 mi WNW 11.5 mph 19.6 mph N/A Snow Light Snow
3:35 PM 29.7 °F 19.6 °F 28.0 °F 94% 29.85 in 1.0 mi WNW 12.7 mph 17.3 mph N/A Snow Light Snow
3:55 PM 29.7 °F 19.6 °F 28.2 °F 94% 29.85 in 1.0 mi WNW 12.7 mph 18.4 mph N/A Snow Light Snow
4:15 PM 29.7 °F 19.6 °F 28.0 °F 94% 29.85 in 1.0 mi WNW 12.7 mph - N/A Snow Light Snow
4:35 PM 29.7 °F 19.6 °F 28.0 °F 94% 29.86 in 1.2 mi WNW 12.7 mph 18.4 mph N/A Snow Light Snow
4:55 PM 29.7 °F 19.6 °F 28.0 °F 94% 29.86 in 1.2 mi WNW 12.7 mph 19.6 mph N/A Snow Light Snow
5:15 PM 29.7 °F 19.1 °F 28.2 °F 94% 29.86 in 1.0 mi WNW 13.8 mph 21.9 mph N/A Snow Light Snow
5:35 PM 30.0 °F 19.1 °F 28.4 °F 94% 29.87 in 1.2 mi WNW 15.0 mph 23.0 mph N/A Snow Light Snow
5:55 PM 30.2 °F 20.2 °F 28.9 °F 95% 29.88 in 1.2 mi WNW 12.7 mph 18.4 mph N/A Snow Light Snow
6:15 PM 30.2 °F 18.5 °F 29.1 °F 96% 29.89 in 2.0 mi NW 17.3 mph 21.9 mph N/A Snow Light Snow
6:35 PM 30.6 °F 20.7 °F 29.3 °F 95% 29.90 in 2.5 mi NW 12.7 mph - N/A Snow Light Snow
6:55 PM 30.6 °F 21.2 °F 29.3 °F 95% 29.91 in 3.0 mi NNW 11.5 mph - N/A Snow Light Snow
7:15 PM 30.6 °F 20.7 °F 28.8 °F 93% 29.92 in 3.0 mi North 12.7 mph 18.4 mph N/A Snow Light Snow
7:35 PM 30.2 °F 21.3 °F 28.2 °F 92% 29.93 in 2.5 mi North 10.4 mph 19.6 mph N/A Snow Light Snow
7:55 PM 29.3 °F 18.6 °F 27.5 °F 93% 29.94 in 2.5 mi North 13.8 mph 19.6 mph N/A Snow Light Snow
8:15 PM 29.3 °F 18.6 °F 27.5 °F 93% 29.96 in 3.0 mi North 13.8 mph 19.6 mph N/A Snow Light Snow
8:35 PM 28.9 °F 20.4 °F 27.0 °F 92% 29.97 in 2.0 mi North 9.2 mph - N/A Snow Light Snow
8:55 PM 28.4 °F 18.5 °F 27.0 °F 94% 29.98 in 1.8 mi NNW 11.5 mph 17.3 mph N/A Snow Light Snow
9:15 PM 28.4 °F 18.5 °F 27.1 °F 95% 30.00 in 1.5 mi NNW 11.5 mph 17.3 mph N/A Snow Light Snow
9:35 PM 28.0 °F 18.6 °F 26.6 °F 94% 30.01 in 1.8 mi North 10.4 mph 16.1 mph N/A Snow Light Snow
9:55 PM 28.0 °F 17.0 °F 26.4 °F 94% 30.02 in 2.0 mi NNW 13.8 mph - N/A Snow Light Snow
10:15 PM 27.9 °F 16.3 °F 25.7 °F 92% 30.03 in 3.0 mi NNW 15.0 mph 18.4 mph N/A   Unknown
10:35 PM 27.5 °F 16.3 °F 25.5 °F 92% 30.03 in 4.0 mi NNW 13.8 mph 19.6 mph N/A   Unknown
10:55 PM 27.5 °F 16.8 °F 25.3 °F 92% 30.03 in 4.0 mi NNW 12.7 mph - N/A   Unknown
11:15 PM 27.5 °F 16.8 °F 25.2 °F 91% 30.04 in 5.0 mi North 12.7 mph 19.6 mph N/A   Unknown
11:35 PM 27.5 °F 16.3 °F 24.8 °F 90% 30.05 in 7.0 mi NNW 13.8 mph - N/A   Unknown
11:55 PM 27.3 °F 16.1 °F 24.6 °F 90% 30.06 in 10.0 mi NNW 13.8 mph - N/A   Unknown